{"data":{"norad_id":66696,"epoch":"2026-05-25T03:11:45.526848Z","epoch_age_seconds":63709,"freshness":"FRESH","line1":"1 66696U 25276AG  26145.13316582  .00007028  00000+0  32873-3 0  9994","line2":"2 66696  97.4189 219.0811 0005376  94.5832 265.6017 15.20059083 26926","mean_motion":15.20059083,"eccentricity":0.0005376,"inclination_deg":97.4189,"raan_deg":219.0811,"arg_perigee_deg":94.5832,"mean_anomaly_deg":265.6017,"bstar":0.00032873,"rev_number":2692,"period_min":94.733159789947,"perigee_km":501.9615004355,"apogee_km":509.36296136857,"semimajor_km":6883.799230902,"source":"CELESTRAK","updated_at":"2026-05-25T13:38:06.414909Z"}}